Location: *
(55.5817°S, 142.4781°W)
Time: 07:13:09
(UTC+00:00)

Cosmos 1844 - Pass Details

Date: 29 April 2025
Orbit: 823 x 865 km, 70.9° (Epoch: 23 May)

Event Time Altitude Azimuth Distance (km) Brightness Sun altitude
Exits shadow 14:42:13 - 212° (SSW) 2,664 6.0 -18.4°
Reaches altitude 10° 14:42:34 10° 211° (SSW) 2,538 5.9 -18.4°
Maximum altitude 14:48:22 60° 131° (SE) 1,002 4.3 -17.5°
Drops below altitude 10° 14:54:08 10° 51° (NE) 2,525 6.9 -16.7°
Sets 14:56:38 0° 47° (NE) 3,456 7.7 -16.4°
